Weather History for Millinocket, ME

Change the Weather History Date:

Wednesday, March 12, 2014

  Actual Average Record
Temperature  
Mean Temperature 26 °F 27 °F  
Max Temperature 37 °F 37 °F 60 °F (1977)
Min Temperature 15 °F 17 °F -13 °F (1923)
Degree Days  
Heating Degree Days 39 38  
Month to date heating degree days 577 481  
Since 1 July heating degree days 6615 6533  
Cooling Degree Days 0 0  
Month to date cooling degree days 0 0  
Year to date cooling degree days 0 0  
Moisture  
Dew Point 25 °F    
Average Humidity 78    
Maximum Humidity 92    
Minimum Humidity 64    
Precipitation  
Precipitation 0.40 in 0.08 in 2.94 in (1936)
Month to date precipitation 0.53 0.91  
Year to date precipitation 5.72 6.02  
Sea Level Pressure  
Sea Level Pressure 29.64 in    
Wind  
Wind Speed 8 mph (North)    
Max Wind Speed 23 mph    
Max Gust Speed 33 mph    
Visibility 3 miles    
Events Fog , Snow    
T = Trace of Precipitation, MM = Missing Value Source: NWS Daily Summary

Daily Weather History Graph

Daily Weather History Graph

Search for Another Location

Airport:

Trip Planner

Search our weather history database for the weather conditions in past years. The results will help you decide how hot, cold, wet, or windy it might be!

Date:

Astronomy

Mar. 12, 2014 Rise Set
Actual Time 6:53 AM EDT 6:36 PM EDT
Civil Twilight 6:23 AM EDT 7:06 PM EDT
Nautical Twilight 5:49 AM EDT 7:40 PM EDT
Astronomical Twilight 5:14 AM EDT 8:15 PM EDT
Moon 2:55 PM EDT (3/12) 4:31 AM EDT (3/12)
Length of Visible Light 12h 42m
Length of Day
11h 43m
Waxing Gibbous, 85% of the Moon is Illuminated
Mar 12
Waxing Gibbous
Mar 16
Full
Mar 23
Last Quarter
Mar 30
New
Apr 7
First Quarter

Hourly Weather History & Observations

Time (EDT) Temp. Windchill Dew Point Humidity Pressure Visibility Wind Dir Wind Speed Gust Speed Precip Events Conditions
12:53 AM 35.1 °F 32.2 °F 25.0 °F 67% 29.70 in 10.0 mi West 3.5 mph - N/A   Overcast
1:53 AM 33.1 °F 28.7 °F 25.0 °F 72% 29.70 in 10.0 mi WNW 4.6 mph - N/A   Mostly Cloudy
2:53 AM 28.0 °F 24.2 °F 25.0 °F 88% 29.70 in 10.0 mi NW 3.5 mph - N/A   Partly Cloudy
3:53 AM 28.0 °F - 24.1 °F 85% 29.70 in 10.0 mi Calm Calm - N/A   Clear
4:53 AM 27.0 °F - 24.1 °F 89% 29.71 in 10.0 mi Calm Calm - N/A   Clear
5:53 AM 27.0 °F - 25.0 °F 92% 29.72 in 9.0 mi Calm Calm - N/A   Overcast
6:53 AM 28.9 °F - 26.1 °F 89% 29.72 in 10.0 mi Calm Calm - N/A   Overcast
7:53 AM 30.0 °F 26.5 °F 26.1 °F 85% 29.73 in 10.0 mi Variable 3.5 mph - N/A   Overcast
8:53 AM 34.0 °F - 27.0 °F 75% 29.71 in 10.0 mi Calm Calm - N/A   Overcast
9:53 AM 35.1 °F 32.2 °F 28.0 °F 76% 29.72 in 10.0 mi NW 3.5 mph - N/A   Overcast
10:53 AM 36.0 °F 30.3 °F 27.0 °F 70% 29.73 in 10.0 mi NW 6.9 mph - N/A   Overcast
11:18 AM 35.1 °F 29.3 °F 28.0 °F 76% 29.70 in 3.0 mi NW 6.9 mph - 0.00 in Snow Light Snow
11:24 AM 35.1 °F 29.3 °F 28.9 °F 78% 29.70 in 1.8 mi NW 6.9 mph - 0.00 in Snow Light Snow
11:34 AM 34.0 °F 28.0 °F 28.9 °F 82% 29.70 in 0.8 mi NW 6.9 mph - 0.01 in Snow Light Snow
11:41 AM 34.0 °F 28.0 °F 30.0 °F 85% 29.70 in 0.5 mi WNW 6.9 mph - 0.01 in Fog , Snow Snow
11:53 AM 34.0 °F 28.8 °F 30.0 °F 85% 29.72 in 0.8 mi NNW 5.8 mph - 0.01 in Snow Light Snow
12:19 PM 33.1 °F 27.7 °F 30.0 °F 89% 29.70 in 0.8 mi NNW 5.8 mph - 0.01 in Snow Light Snow
12:32 PM 33.1 °F 26.9 °F 28.9 °F 85% 29.69 in 1.0 mi NNW 6.9 mph - 0.02 in Snow Light Snow
12:40 PM 33.1 °F 26.9 °F 28.9 °F 85% 29.69 in 0.8 mi NNW 6.9 mph - 0.02 in Snow Light Snow
12:50 PM 33.8 °F 27.7 °F 28.4 °F 81% 29.68 in 0.8 mi NNW 6.9 mph - 0.02 in Snow Light Snow
12:53 PM 33.1 °F 27.7 °F 28.9 °F 85% 29.71 in 0.8 mi NNW 5.8 mph - 0.02 in Snow Light Snow
1:01 PM 33.1 °F 27.7 °F 28.9 °F 85% 29.68 in 1.0 mi NNW 5.8 mph - 0.01 in Snow Light Snow
1:43 PM 32.0 °F 26.4 °F 28.9 °F 88% 29.68 in 0.8 mi NNW 5.8 mph - 0.01 in Snow Light Snow
1:53 PM 32.0 °F 26.4 °F 28.9 °F 88% 29.70 in 1.0 mi NNW 5.8 mph - 0.02 in Snow Light Snow
2:06 PM 33.1 °F 27.7 °F 28.9 °F 85% 29.67 in 1.0 mi North 5.8 mph - 0.00 in Snow Light Snow
2:24 PM 32.0 °F 26.4 °F 28.9 °F 88% 29.66 in 0.8 mi North 5.8 mph - 0.01 in Snow Light Snow
2:53 PM 32.0 °F - 28.9 °F 88% 29.69 in 0.5 mi Calm Calm - 0.03 in Fog , Snow Snow
3:04 PM 32.0 °F 25.6 °F 28.9 °F 88% 29.65 in 0.5 mi NE 6.9 mph - 0.01 in Fog , Snow Snow
3:11 PM 32.0 °F 24.8 °F 28.9 °F 88% 29.65 in 0.2 mi NE 8.1 mph - 0.02 in Fog , Snow Snow
3:16 PM 32.0 °F 25.6 °F 28.9 °F 88% 29.65 in 0.5 mi NE 6.9 mph - 0.02 in Fog , Snow Snow
3:29 PM 32.0 °F 26.4 °F 28.9 °F 88% 29.64 in 0.5 mi NE 5.8 mph - 0.03 in Fog , Snow Snow
3:36 PM 30.9 °F 21.7 °F 28.0 °F 89% 29.64 in 0.5 mi NE 11.5 mph - 0.03 in Fog , Snow Snow
3:45 PM 30.9 °F 23.5 °F 28.0 °F 89% 29.64 in 0.5 mi ENE 8.1 mph - 0.04 in Fog , Snow Snow
3:53 PM 30.9 °F 22.2 °F 28.0 °F 89% 29.66 in 0.5 mi NE 10.4 mph - 0.04 in Fog , Snow Snow
4:00 PM 30.9 °F 22.8 °F 28.0 °F 89% 29.62 in 0.5 mi NE 9.2 mph - 0.00 in Fog , Snow Snow
4:10 PM 30.9 °F 20.7 °F 28.0 °F 89% 29.61 in 0.5 mi NNE 13.8 mph 20.7 mph 0.01 in Fog , Snow Snow
4:15 PM 30.0 °F 20.5 °F 26.1 °F 85% 29.61 in 0.2 mi NNE 11.5 mph 20.7 mph 0.01 in Fog , Snow Snow
4:20 PM 28.9 °F 19.2 °F 26.1 °F 89% 29.60 in 0.5 mi NNE 11.5 mph - 0.01 in Fog , Snow Snow
4:42 PM 28.0 °F 15.7 °F 24.1 °F 85% 29.62 in 0.2 mi NE 17.3 mph 25.3 mph 0.02 in Fog , Snow Snow
4:53 PM 27.0 °F 17.3 °F 24.1 °F 89% 29.64 in 0.2 mi NNE 10.4 mph - 0.02 in Fog , Snow Snow
5:17 PM 26.1 °F 14.5 °F 21.9 °F 84% 29.60 in 0.5 mi NE 13.8 mph 21.9 mph 0.01 in Fog , Snow Snow
5:42 PM 25.0 °F 13.1 °F 21.0 °F 85% 29.59 in 0.2 mi NE 13.8 mph - 0.02 in Fog , Snow Snow
5:53 PM 23.0 °F 8.7 °F 19.0 °F 85% 29.62 in 0.2 mi NE 18.4 mph 28.8 mph 0.03 in Fog , Snow Snow
6:39 PM 21.0 °F 8.6 °F 17.1 °F 85% 29.56 in 0.5 mi NE 12.7 mph 21.9 mph 0.03 in Fog , Snow Snow
6:53 PM 21.0 °F 8.6 °F 17.1 °F 85% 29.60 in 0.5 mi NE 12.7 mph 24.2 mph 0.04 in Fog , Snow Snow
7:53 PM 19.9 °F 9.3 °F 16.0 °F 85% 29.55 in 0.5 mi NNE 9.2 mph 26.5 mph 0.04 in Fog , Snow Snow
8:53 PM 19.0 °F 3.2 °F 15.1 °F 85% 29.50 in 0.5 mi NNE 19.6 mph 27.6 mph 0.05 in Fog , Snow Snow
9:11 PM 19.0 °F 5.6 °F 14.0 °F 81% 29.46 in 0.2 mi NNE 13.8 mph 26.5 mph 0.01 in Snow Heavy Snow
9:20 PM 18.0 °F 3.1 °F 14.0 °F 84% 29.45 in 0.2 mi NNE 16.1 mph 24.2 mph 0.02 in Fog , Snow Heavy Snow
9:53 PM 18.0 °F 4.8 °F 14.0 °F 84% 29.45 in 0.5 mi North 12.7 mph 26.5 mph 0.05 in Fog Light Freezing Fog
10:17 PM 18.0 °F 2.6 °F 14.0 °F 84% 29.41 in 0.5 mi NNE 17.3 mph 26.5 mph 0.02 in Fog Light Freezing Fog
10:53 PM 18.0 °F 2.6 °F 12.9 °F 81% 29.42 in 0.5 mi North 17.3 mph 28.8 mph 0.05 in   Haze
11:53 PM 16.0 °F -0.4 °F 10.9 °F 81% 29.39 in 0.5 mi NNE 18.4 mph 27.6 mph N/A   Haze